Year,Month,Day,Hour,Minute,Value (Times are PST for temperature in C)
2019,07,27,00,00,20.90
2019,07,27,00,01,20.90
2019,07,27,00,02,20.90
2019,07,27,00,03,20.90
2019,07,27,00,04,20.90
2019,07,27,00,05,21.00
2019,07,27,00,06,21.00
2019,07,27,00,07,21.00
2019,07,27,00,08,21.00
2019,07,27,00,09,21.10
2019,07,27,00,10,21.10
2019,07,27,00,11,21.10
2019,07,27,00,12,21.10
2019,07,27,00,13,21.10
2019,07,27,00,14,21.10
2019,07,27,00,15,21.10
2019,07,27,00,16,21.10
2019,07,27,00,17,21.10
2019,07,27,00,18,21.10
2019,07,27,00,19,21.10
2019,07,27,00,20,21.10
2019,07,27,00,21,21.10
2019,07,27,00,22,21.10
2019,07,27,00,23,21.10
2019,07,27,00,24,21.10
2019,07,27,00,25,21.10
2019,07,27,00,26,21.10
2019,07,27,00,27,21.10
2019,07,27,00,28,21.10
2019,07,27,00,29,21.10
2019,07,27,00,30,21.10
2019,07,27,00,31,21.10
2019,07,27,00,32,21.10
2019,07,27,00,33,21.10
2019,07,27,00,34,21.00
2019,07,27,00,35,21.00
2019,07,27,00,36,21.00
2019,07,27,00,37,21.00
2019,07,27,00,38,21.00
2019,07,27,00,39,21.00
2019,07,27,00,40,21.00
2019,07,27,00,41,21.00
2019,07,27,00,42,21.00
2019,07,27,00,43,21.00
2019,07,27,00,44,21.00
2019,07,27,00,45,21.00
2019,07,27,00,46,21.00
2019,07,27,00,47,21.00
2019,07,27,00,48,21.00
2019,07,27,00,49,21.00
2019,07,27,00,50,21.00
2019,07,27,00,51,21.00
2019,07,27,00,52,21.00
2019,07,27,00,53,21.00
2019,07,27,00,54,21.00
2019,07,27,00,55,21.00
2019,07,27,00,56,21.00
2019,07,27,00,57,21.00
2019,07,27,00,58,21.00
2019,07,27,00,59,21.00
2019,07,27,01,00,21.00
2019,07,27,01,01,20.90
2019,07,27,01,02,20.90
2019,07,27,01,03,20.90
2019,07,27,01,04,20.90
2019,07,27,01,05,20.90
2019,07,27,01,06,20.90
2019,07,27,01,07,20.90
2019,07,27,01,08,20.90
2019,07,27,01,09,20.90
2019,07,27,01,10,20.90
2019,07,27,01,11,20.90
2019,07,27,01,12,20.90
2019,07,27,01,13,20.90
2019,07,27,01,14,20.90
2019,07,27,01,15,20.90
2019,07,27,01,16,20.90
2019,07,27,01,17,20.90
2019,07,27,01,18,20.90
2019,07,27,01,19,20.90
2019,07,27,01,20,20.90
2019,07,27,01,21,20.90
2019,07,27,01,22,20.90
2019,07,27,01,23,20.90
2019,07,27,01,24,20.90
2019,07,27,01,25,20.90
2019,07,27,01,26,20.90
2019,07,27,01,27,20.90
2019,07,27,01,28,20.90
2019,07,27,01,29,20.90
2019,07,27,01,30,20.90
2019,07,27,01,31,20.90
2019,07,27,01,32,20.90
2019,07,27,01,33,20.90
2019,07,27,01,34,20.90
2019,07,27,01,35,20.90
2019,07,27,01,36,20.80
2019,07,27,01,37,20.80
2019,07,27,01,38,20.80
2019,07,27,01,39,20.80
2019,07,27,01,40,20.80
2019,07,27,01,41,20.80
2019,07,27,01,42,20.80
2019,07,27,01,43,20.80
2019,07,27,01,44,20.80
2019,07,27,01,45,20.80
2019,07,27,01,46,20.80
2019,07,27,01,47,20.80
2019,07,27,01,48,20.70
2019,07,27,01,49,20.70
2019,07,27,01,50,20.70
2019,07,27,01,51,20.70
2019,07,27,01,52,20.60
2019,07,27,01,53,20.60
2019,07,27,01,54,20.60
2019,07,27,01,55,20.50
2019,07,27,01,56,20.50
2019,07,27,01,57,20.50
2019,07,27,01,58,20.40
2019,07,27,01,59,20.40
2019,07,27,02,00,20.40
2019,07,27,02,01,20.40
2019,07,27,02,02,20.40
2019,07,27,02,03,20.30
2019,07,27,02,04,20.30
2019,07,27,02,05,20.30
2019,07,27,02,06,20.30
2019,07,27,02,07,20.30
2019,07,27,02,08,20.30
2019,07,27,02,09,20.30
2019,07,27,02,10,20.20
2019,07,27,02,11,20.20
2019,07,27,02,12,20.20
2019,07,27,02,13,20.20
2019,07,27,02,14,20.20
2019,07,27,02,15,20.10
2019,07,27,02,16,20.10
2019,07,27,02,17,20.00
2019,07,27,02,18,20.00
2019,07,27,02,19,19.90
2019,07,27,02,20,19.90
2019,07,27,02,21,19.80
2019,07,27,02,22,19.80
2019,07,27,02,23,19.80
2019,07,27,02,24,19.70
2019,07,27,02,25,19.70
2019,07,27,02,26,19.70
2019,07,27,02,27,19.60
2019,07,27,02,28,19.60
2019,07,27,02,29,19.60
2019,07,27,02,30,19.50
2019,07,27,02,31,19.50
2019,07,27,02,32,19.40
2019,07,27,02,33,19.40
2019,07,27,02,34,19.40
2019,07,27,02,35,19.30
2019,07,27,02,36,19.30
2019,07,27,02,37,19.30
2019,07,27,02,38,19.20
2019,07,27,02,39,19.20
2019,07,27,02,40,19.20
2019,07,27,02,41,19.20
2019,07,27,02,42,19.20
2019,07,27,02,43,19.20
2019,07,27,02,44,19.10
2019,07,27,02,45,19.10
2019,07,27,02,46,19.10
2019,07,27,02,47,19.00
2019,07,27,02,48,19.00
2019,07,27,02,49,19.00
2019,07,27,02,50,18.90
2019,07,27,02,51,18.90
2019,07,27,02,52,18.80
2019,07,27,02,53,18.80
2019,07,27,02,54,18.80
2019,07,27,02,55,18.70
2019,07,27,02,56,18.70
2019,07,27,02,57,18.70
2019,07,27,02,58,18.60
2019,07,27,02,59,18.60
2019,07,27,03,00,18.60
2019,07,27,03,01,18.50
2019,07,27,03,02,18.50
2019,07,27,03,03,18.50
2019,07,27,03,04,18.50
2019,07,27,03,05,18.40
2019,07,27,03,06,18.40
2019,07,27,03,07,18.40
2019,07,27,03,08,18.40
2019,07,27,03,09,18.40
2019,07,27,03,10,18.40
2019,07,27,03,11,18.40
2019,07,27,03,12,18.30
2019,07,27,03,13,18.30
2019,07,27,03,14,18.30
2019,07,27,03,15,18.30
2019,07,27,03,16,18.30
2019,07,27,03,17,18.30
2019,07,27,03,18,18.30
2019,07,27,03,19,18.30
2019,07,27,03,20,18.20
2019,07,27,03,21,18.20
2019,07,27,03,22,18.20
2019,07,27,03,23,18.20
2019,07,27,03,24,18.20
2019,07,27,03,25,18.20
2019,07,27,03,26,18.10
2019,07,27,03,27,18.10
2019,07,27,03,28,18.10
2019,07,27,03,29,18.10
2019,07,27,03,30,18.10
2019,07,27,03,31,18.00
2019,07,27,03,32,18.00
2019,07,27,03,33,18.00
2019,07,27,03,34,18.00
2019,07,27,03,35,18.00
2019,07,27,03,36,17.90
2019,07,27,03,37,17.90
2019,07,27,03,38,17.90
2019,07,27,03,39,17.90
2019,07,27,03,40,17.90
2019,07,27,03,41,17.90
2019,07,27,03,42,17.90
2019,07,27,03,43,17.90
2019,07,27,03,44,17.80
2019,07,27,03,45,17.80
2019,07,27,03,46,17.80
2019,07,27,03,47,17.80
2019,07,27,03,48,17.80
2019,07,27,03,49,17.80
2019,07,27,03,50,17.80
2019,07,27,03,51,17.70
2019,07,27,03,52,17.70
2019,07,27,03,53,17.70
2019,07,27,03,54,17.70
2019,07,27,03,55,17.60
2019,07,27,03,56,17.60
2019,07,27,03,57,17.60
2019,07,27,03,58,17.50
2019,07,27,03,59,17.40
2019,07,27,04,00,17.40
2019,07,27,04,01,17.40
2019,07,27,04,02,17.30
2019,07,27,04,03,17.30
2019,07,27,04,04,17.30
2019,07,27,04,05,17.20
2019,07,27,04,06,17.20
2019,07,27,04,07,17.20
2019,07,27,04,08,17.20
2019,07,27,04,09,17.20
2019,07,27,04,10,17.20
2019,07,27,04,11,17.20
2019,07,27,04,12,17.20
2019,07,27,04,13,17.10
2019,07,27,04,14,17.10
2019,07,27,04,15,17.10
2019,07,27,04,16,17.10
2019,07,27,04,17,17.10
2019,07,27,04,18,17.20
2019,07,27,04,19,17.20
2019,07,27,04,20,17.20
2019,07,27,04,21,17.20
2019,07,27,04,22,17.20
2019,07,27,04,23,17.20
2019,07,27,04,24,17.20
2019,07,27,04,25,17.20
2019,07,27,04,26,17.20
2019,07,27,04,27,17.20
2019,07,27,04,28,17.20
2019,07,27,04,29,17.20
2019,07,27,04,30,17.20
2019,07,27,04,31,17.20
2019,07,27,04,32,17.20
2019,07,27,04,33,17.20
2019,07,27,04,34,17.20
2019,07,27,04,35,17.20
2019,07,27,04,36,17.20
2019,07,27,04,37,17.20
2019,07,27,04,38,17.20
2019,07,27,04,39,17.20
2019,07,27,04,40,17.20
2019,07,27,04,41,17.20
2019,07,27,04,42,17.20
2019,07,27,04,43,17.10
2019,07,27,04,44,17.10
2019,07,27,04,45,17.10
2019,07,27,04,46,17.10
2019,07,27,04,47,17.10
2019,07,27,04,48,17.10
2019,07,27,04,49,17.10
2019,07,27,04,50,17.10
2019,07,27,04,51,17.10
2019,07,27,04,52,17.10
2019,07,27,04,53,17.10
2019,07,27,04,54,17.10
2019,07,27,04,55,17.10
2019,07,27,04,56,17.10
2019,07,27,04,57,17.10
2019,07,27,04,58,17.10
2019,07,27,04,59,17.10
2019,07,27,05,00,17.10
2019,07,27,05,01,17.10
2019,07,27,05,02,17.10
2019,07,27,05,03,17.10
2019,07,27,05,04,17.10
2019,07,27,05,05,17.10
2019,07,27,05,06,17.10
2019,07,27,05,07,17.10
2019,07,27,05,08,17.10
2019,07,27,05,09,17.10
2019,07,27,05,10,17.10
2019,07,27,05,11,17.10
2019,07,27,05,12,17.10
2019,07,27,05,13,17.10
2019,07,27,05,14,17.10
2019,07,27,05,15,17.10
2019,07,27,05,16,17.10
2019,07,27,05,17,17.10
2019,07,27,05,18,17.10
2019,07,27,05,19,17.10
2019,07,27,05,20,17.10
2019,07,27,05,21,17.10
2019,07,27,05,22,17.10
2019,07,27,05,23,17.20
2019,07,27,05,24,17.20
2019,07,27,05,25,17.20
2019,07,27,05,26,17.20
2019,07,27,05,27,17.20
2019,07,27,05,28,17.20
2019,07,27,05,29,17.20
2019,07,27,05,30,17.20
2019,07,27,05,31,17.20
2019,07,27,05,32,17.20
2019,07,27,05,33,17.20
2019,07,27,05,34,17.20
2019,07,27,05,35,17.20
2019,07,27,05,36,17.20
2019,07,27,05,37,17.20
2019,07,27,05,38,17.20
2019,07,27,05,39,17.20
2019,07,27,05,40,17.20
2019,07,27,05,41,17.20
2019,07,27,05,42,17.20
2019,07,27,05,43,17.30
2019,07,27,05,44,17.30
2019,07,27,05,45,17.30
2019,07,27,05,46,17.30
2019,07,27,05,47,17.30
2019,07,27,05,48,17.30
2019,07,27,05,49,17.30
2019,07,27,05,50,17.40
2019,07,27,05,51,17.40
2019,07,27,05,52,17.40
2019,07,27,05,53,17.40
2019,07,27,05,54,17.40
2019,07,27,05,55,17.40
2019,07,27,05,56,17.40
2019,07,27,05,57,17.40
2019,07,27,05,58,17.40
2019,07,27,05,59,17.40
2019,07,27,06,00,17.40
2019,07,27,06,01,17.50
2019,07,27,06,02,17.50
2019,07,27,06,03,17.50
2019,07,27,06,04,17.50
2019,07,27,06,05,17.50
2019,07,27,06,06,17.50
2019,07,27,06,07,17.50
2019,07,27,06,08,17.50
2019,07,27,06,09,17.50
2019,07,27,06,10,17.50
2019,07,27,06,11,17.60
2019,07,27,06,12,17.60
2019,07,27,06,13,17.60
2019,07,27,06,14,17.60
2019,07,27,06,15,17.60
2019,07,27,06,16,17.60
2019,07,27,06,17,17.60
2019,07,27,06,18,17.60
2019,07,27,06,19,17.60
2019,07,27,06,20,17.60
2019,07,27,06,21,17.60
2019,07,27,06,22,17.50
2019,07,27,06,23,17.50
2019,07,27,06,24,17.40
2019,07,27,06,25,17.40
2019,07,27,06,26,17.30
2019,07,27,06,27,17.30
2019,07,27,06,28,17.30
2019,07,27,06,29,17.30
2019,07,27,06,30,17.20
2019,07,27,06,31,17.20
2019,07,27,06,32,17.20
2019,07,27,06,33,17.20
2019,07,27,06,34,17.20
2019,07,27,06,35,17.20
2019,07,27,06,36,17.20
2019,07,27,06,37,17.20
2019,07,27,06,38,17.20
2019,07,27,06,39,17.20
2019,07,27,06,40,17.20
2019,07,27,06,41,17.20
2019,07,27,06,42,17.20
2019,07,27,06,43,17.20
2019,07,27,06,44,17.20
2019,07,27,06,45,17.20
2019,07,27,06,46,17.20
2019,07,27,06,47,17.20
2019,07,27,06,48,17.20
2019,07,27,06,49,17.20
2019,07,27,06,50,17.20
2019,07,27,06,51,17.20
2019,07,27,06,52,17.20
2019,07,27,06,53,17.20
2019,07,27,06,54,17.20
2019,07,27,06,55,17.20
2019,07,27,06,56,17.20
2019,07,27,06,57,17.20
2019,07,27,06,58,17.20
2019,07,27,06,59,17.20
2019,07,27,07,00,17.20
2019,07,27,07,01,17.20
2019,07,27,07,02,17.20
2019,07,27,07,03,17.20
2019,07,27,07,04,17.20
2019,07,27,07,05,17.20
2019,07,27,07,06,17.20
2019,07,27,07,07,17.20
2019,07,27,07,08,17.20
2019,07,27,07,09,17.20
2019,07,27,07,10,17.20
2019,07,27,07,11,17.20
2019,07,27,07,12,17.30
2019,07,27,07,13,17.30
2019,07,27,07,14,17.30
2019,07,27,07,15,17.40
2019,07,27,07,16,17.40
2019,07,27,07,17,17.40
2019,07,27,07,18,17.40
2019,07,27,07,19,17.40
2019,07,27,07,20,17.40
2019,07,27,07,21,17.40
2019,07,27,07,22,17.50
2019,07,27,07,23,17.50
2019,07,27,07,24,17.50
2019,07,27,07,25,17.60
2019,07,27,07,26,17.60
2019,07,27,07,27,17.60
2019,07,27,07,28,17.60
2019,07,27,07,29,17.60
2019,07,27,07,30,17.60
2019,07,27,07,31,17.70
2019,07,27,07,32,17.70
2019,07,27,07,33,17.70
2019,07,27,07,34,17.60
2019,07,27,07,35,17.70
2019,07,27,07,36,17.60
2019,07,27,07,37,17.70
2019,07,27,07,38,17.70
2019,07,27,07,39,17.70
2019,07,27,07,40,17.70
2019,07,27,07,41,17.70
2019,07,27,07,42,17.70
2019,07,27,07,43,17.70
2019,07,27,07,44,17.70
2019,07,27,07,45,17.70
2019,07,27,07,46,17.70
2019,07,27,07,47,17.70
2019,07,27,07,48,17.70
2019,07,27,07,49,17.70
2019,07,27,07,50,17.80
2019,07,27,07,51,17.80
2019,07,27,07,52,17.80
2019,07,27,07,53,17.80
2019,07,27,07,54,17.90
2019,07,27,07,55,17.90
2019,07,27,07,56,17.90
2019,07,27,07,57,17.90
2019,07,27,07,58,17.90
2019,07,27,07,59,18.00
2019,07,27,08,00,18.00
2019,07,27,08,01,18.10
2019,07,27,08,02,18.10
2019,07,27,08,03,18.10
2019,07,27,08,04,18.10
2019,07,27,08,05,18.20
2019,07,27,08,06,18.20
2019,07,27,08,07,18.20
2019,07,27,08,08,18.20
2019,07,27,08,09,18.20
2019,07,27,08,10,18.20
2019,07,27,08,11,18.20
2019,07,27,08,12,18.20
2019,07,27,08,13,18.20
2019,07,27,08,14,18.20
2019,07,27,08,15,18.30
2019,07,27,08,16,18.30
2019,07,27,08,17,18.30
2019,07,27,08,18,18.30
2019,07,27,08,19,18.30
2019,07,27,08,20,18.30
2019,07,27,08,21,18.40
2019,07,27,08,22,18.40
2019,07,27,08,23,18.40
2019,07,27,08,24,18.40
2019,07,27,08,25,18.50
2019,07,27,08,26,18.50
2019,07,27,08,27,18.50
2019,07,27,08,28,18.60
2019,07,27,08,29,18.60
2019,07,27,08,30,18.60
2019,07,27,08,31,18.60
2019,07,27,08,32,18.60
2019,07,27,08,33,18.50
2019,07,27,08,34,18.60
2019,07,27,08,35,18.60
2019,07,27,08,36,18.60
2019,07,27,08,37,18.60
2019,07,27,08,38,18.60
2019,07,27,08,39,18.60
2019,07,27,08,40,18.60
2019,07,27,08,41,18.60
2019,07,27,08,42,18.60
2019,07,27,08,43,18.70
2019,07,27,08,44,18.70
2019,07,27,08,45,18.70
2019,07,27,08,46,18.70
2019,07,27,08,47,18.80
2019,07,27,08,48,18.80
2019,07,27,08,49,18.80
2019,07,27,08,50,18.80
2019,07,27,08,51,18.90
2019,07,27,08,52,18.90
2019,07,27,08,53,19.00
2019,07,27,08,54,19.00
2019,07,27,08,55,19.00
2019,07,27,08,56,19.10
2019,07,27,08,57,19.10
2019,07,27,08,58,19.10
2019,07,27,08,59,19.10
2019,07,27,09,00,19.20
2019,07,27,09,01,19.20
2019,07,27,09,02,19.20
2019,07,27,09,03,19.20
2019,07,27,09,04,19.10
2019,07,27,09,05,19.10
2019,07,27,09,06,19.10
2019,07,27,09,07,19.20
2019,07,27,09,08,19.20
2019,07,27,09,09,19.30
2019,07,27,09,10,19.30
2019,07,27,09,11,19.30
2019,07,27,09,12,19.30
2019,07,27,09,13,19.30
2019,07,27,09,14,19.30
2019,07,27,09,15,19.40
2019,07,27,09,16,19.40
2019,07,27,09,17,19.40
2019,07,27,09,18,19.40
2019,07,27,09,19,19.40
2019,07,27,09,20,19.40
2019,07,27,09,21,19.40
2019,07,27,09,22,19.40
2019,07,27,09,23,19.40
2019,07,27,09,24,19.40
2019,07,27,09,25,19.40
2019,07,27,09,26,19.40
2019,07,27,09,27,19.40
2019,07,27,09,28,19.40
2019,07,27,09,29,19.40
2019,07,27,09,30,19.40
2019,07,27,09,31,19.40
2019,07,27,09,32,19.40
2019,07,27,09,33,19.40
2019,07,27,09,34,19.50
2019,07,27,09,35,19.50
2019,07,27,09,36,19.50
2019,07,27,09,37,19.50
2019,07,27,09,38,19.50
2019,07,27,09,39,19.60
2019,07,27,09,40,19.60
2019,07,27,09,41,19.60
2019,07,27,09,42,19.60
2019,07,27,09,43,19.60
2019,07,27,09,44,19.60
2019,07,27,09,45,19.60
2019,07,27,09,46,19.60
2019,07,27,09,47,19.60
2019,07,27,09,48,19.60
2019,07,27,09,49,19.60
2019,07,27,09,50,19.60
2019,07,27,09,51,19.60
2019,07,27,09,52,19.50
2019,07,27,09,53,19.50
2019,07,27,09,54,19.50
2019,07,27,09,55,19.50
2019,07,27,09,56,19.60
2019,07,27,09,57,19.50
2019,07,27,09,58,19.50
2019,07,27,09,59,19.50
2019,07,27,10,00,19.50
2019,07,27,10,01,19.60
2019,07,27,10,02,19.60
2019,07,27,10,03,19.60
2019,07,27,10,04,19.60
2019,07,27,10,05,19.60
2019,07,27,10,06,19.60
2019,07,27,10,07,19.60
2019,07,27,10,08,19.70
2019,07,27,10,09,19.80
2019,07,27,10,10,19.90
2019,07,27,10,11,20.00
2019,07,27,10,12,20.10
2019,07,27,10,13,20.10
2019,07,27,10,14,20.10
2019,07,27,10,15,20.20
2019,07,27,10,16,20.20
2019,07,27,10,17,20.20
2019,07,27,10,18,20.20
2019,07,27,10,19,20.20
2019,07,27,10,20,20.20
2019,07,27,10,21,20.20
2019,07,27,10,22,20.20
2019,07,27,10,23,20.20
2019,07,27,10,24,20.20
2019,07,27,10,25,20.20
2019,07,27,10,26,20.20
2019,07,27,10,27,20.20
2019,07,27,10,28,20.20
2019,07,27,10,29,20.20
2019,07,27,10,30,20.10
2019,07,27,10,31,20.10
2019,07,27,10,32,20.10
2019,07,27,10,33,20.10
2019,07,27,10,34,20.10
2019,07,27,10,35,20.10
2019,07,27,10,36,20.20
2019,07,27,10,37,20.20
2019,07,27,10,38,20.10
2019,07,27,10,39,20.20
2019,07,27,10,40,20.30
2019,07,27,10,41,20.30
2019,07,27,10,42,20.30
2019,07,27,10,43,20.30
2019,07,27,10,44,20.40
2019,07,27,10,45,20.50
2019,07,27,10,46,20.50
2019,07,27,10,47,20.60
2019,07,27,10,48,20.60
2019,07,27,10,49,20.60
2019,07,27,10,50,20.60
2019,07,27,10,51,20.70
2019,07,27,10,52,20.70
2019,07,27,10,53,20.80
2019,07,27,10,54,20.80
2019,07,27,10,55,20.70
2019,07,27,10,56,20.70
2019,07,27,10,57,20.60
2019,07,27,10,58,20.60
2019,07,27,10,59,20.70
2019,07,27,11,00,20.70
2019,07,27,11,01,20.80
2019,07,27,11,02,20.80
2019,07,27,11,03,20.90
2019,07,27,11,04,20.90
2019,07,27,11,05,20.90
2019,07,27,11,06,20.90
2019,07,27,11,07,21.00
2019,07,27,11,08,21.00
2019,07,27,11,09,21.10
2019,07,27,11,10,21.10
2019,07,27,11,11,21.20
2019,07,27,11,12,21.20
2019,07,27,11,13,21.20
2019,07,27,11,14,21.20
2019,07,27,11,15,21.30
2019,07,27,11,16,21.30
2019,07,27,11,17,21.30
2019,07,27,11,18,21.30
2019,07,27,11,19,21.20
2019,07,27,11,20,21.20
2019,07,27,11,21,21.20
2019,07,27,11,22,21.20
2019,07,27,11,23,21.30
2019,07,27,11,24,21.30
2019,07,27,11,25,21.30
2019,07,27,11,26,21.30
2019,07,27,11,27,21.30
2019,07,27,11,28,21.30
2019,07,27,11,29,21.30
2019,07,27,11,30,21.30
2019,07,27,11,31,21.30
2019,07,27,11,32,21.30
2019,07,27,11,33,21.30
2019,07,27,11,34,21.30
2019,07,27,11,35,21.30
2019,07,27,11,36,21.40
2019,07,27,11,37,21.50
2019,07,27,11,38,21.50
2019,07,27,11,39,21.50
2019,07,27,11,40,21.50
2019,07,27,11,41,21.50
2019,07,27,11,42,21.60
2019,07,27,11,43,21.60
2019,07,27,11,44,21.50
2019,07,27,11,45,21.50
2019,07,27,11,46,21.50
2019,07,27,11,47,21.60
2019,07,27,11,48,21.60
2019,07,27,11,49,21.60
2019,07,27,11,50,21.60
2019,07,27,11,51,21.50
2019,07,27,11,52,21.60
2019,07,27,11,53,21.60
2019,07,27,11,54,21.60
2019,07,27,11,55,21.70
2019,07,27,11,56,21.70
2019,07,27,11,57,21.70
2019,07,27,11,58,21.60
2019,07,27,11,59,21.70
2019,07,27,12,00,21.70
2019,07,27,12,01,21.80
2019,07,27,12,02,21.80
2019,07,27,12,03,21.80
2019,07,27,12,04,21.90
2019,07,27,12,05,21.90
2019,07,27,12,06,21.90
2019,07,27,12,07,21.90
2019,07,27,12,08,21.90
2019,07,27,12,09,21.90
2019,07,27,12,10,21.80
2019,07,27,12,11,21.80
2019,07,27,12,12,21.80
2019,07,27,12,13,21.80
2019,07,27,12,14,21.80
2019,07,27,12,15,21.80
2019,07,27,12,16,21.80
2019,07,27,12,17,21.80
2019,07,27,12,18,21.90
2019,07,27,12,19,22.00
2019,07,27,12,20,22.00
2019,07,27,12,21,21.90
2019,07,27,12,22,21.90
2019,07,27,12,23,21.80
2019,07,27,12,24,21.90
2019,07,27,12,25,22.00
2019,07,27,12,26,22.00
2019,07,27,12,27,22.00
2019,07,27,12,28,22.10
2019,07,27,12,29,22.10
2019,07,27,12,30,22.20
2019,07,27,12,31,22.30
2019,07,27,12,32,22.30
2019,07,27,12,33,22.30
2019,07,27,12,34,22.40
2019,07,27,12,35,22.30
2019,07,27,12,36,22.30
2019,07,27,12,37,22.30
2019,07,27,12,38,22.30
2019,07,27,12,39,22.30
2019,07,27,12,40,22.30
2019,07,27,12,41,22.30
2019,07,27,12,42,22.40
2019,07,27,12,43,22.40
2019,07,27,12,44,22.40
2019,07,27,12,45,22.40
2019,07,27,12,46,22.40
2019,07,27,12,47,22.40
2019,07,27,12,48,22.40
2019,07,27,12,49,22.40
2019,07,27,12,50,22.40
2019,07,27,12,51,22.50
2019,07,27,12,52,22.60
2019,07,27,12,53,22.70
2019,07,27,12,54,22.70
2019,07,27,12,55,22.70
2019,07,27,12,56,22.60
2019,07,27,12,57,22.50
2019,07,27,12,58,22.50
2019,07,27,12,59,22.40
2019,07,27,13,00,22.40
2019,07,27,13,01,22.40
2019,07,27,13,02,22.40
2019,07,27,13,03,22.40
2019,07,27,13,04,22.40
2019,07,27,13,05,22.40
2019,07,27,13,06,22.50
2019,07,27,13,07,22.50
2019,07,27,13,08,22.50
2019,07,27,13,09,22.60
2019,07,27,13,10,22.60
2019,07,27,13,11,22.60
2019,07,27,13,12,22.60
2019,07,27,13,13,22.60
2019,07,27,13,14,22.60
2019,07,27,13,15,22.70
2019,07,27,13,16,22.70
2019,07,27,13,17,22.60
2019,07,27,13,18,22.50
2019,07,27,13,19,22.50
2019,07,27,13,20,22.60
2019,07,27,13,21,22.60
2019,07,27,13,22,22.70
2019,07,27,13,23,22.70
2019,07,27,13,24,22.80
2019,07,27,13,25,22.80
2019,07,27,13,26,22.90
2019,07,27,13,27,22.90
2019,07,27,13,28,22.80
2019,07,27,13,29,22.80
2019,07,27,13,30,22.70
2019,07,27,13,31,22.70
2019,07,27,13,32,22.60
2019,07,27,13,33,22.70
2019,07,27,13,34,22.70
2019,07,27,13,35,22.80
2019,07,27,13,36,22.80
2019,07,27,13,37,22.90
2019,07,27,13,38,22.90
2019,07,27,13,39,23.00
2019,07,27,13,40,23.00
2019,07,27,13,41,22.90
2019,07,27,13,42,22.90
2019,07,27,13,43,22.90
2019,07,27,13,44,22.90
2019,07,27,13,45,23.00
2019,07,27,13,46,23.00
2019,07,27,13,47,23.00
2019,07,27,13,48,23.10
2019,07,27,13,49,23.10
2019,07,27,13,50,23.00
2019,07,27,13,51,23.00
2019,07,27,13,52,23.00
2019,07,27,13,53,22.90
2019,07,27,13,54,22.90
2019,07,27,13,55,22.80
2019,07,27,13,56,22.80
2019,07,27,13,57,22.80
2019,07,27,13,58,22.70
2019,07,27,13,59,22.70
2019,07,27,14,00,22.70
2019,07,27,14,01,22.70
2019,07,27,14,02,22.60
2019,07,27,14,03,22.60
2019,07,27,14,04,22.60
2019,07,27,14,05,22.70
2019,07,27,14,06,22.70
2019,07,27,14,07,22.70
2019,07,27,14,08,22.70
2019,07,27,14,09,22.70
2019,07,27,14,10,22.60
2019,07,27,14,11,22.70
2019,07,27,14,12,22.70
2019,07,27,14,13,22.60
2019,07,27,14,14,22.60
2019,07,27,14,15,22.50
2019,07,27,14,16,22.50
2019,07,27,14,17,22.60
2019,07,27,14,18,22.50
2019,07,27,14,19,22.40
2019,07,27,14,20,22.40
2019,07,27,14,21,22.50
2019,07,27,14,22,22.50
2019,07,27,14,23,22.40
2019,07,27,14,24,22.40
2019,07,27,14,25,22.40
2019,07,27,14,26,22.30
2019,07,27,14,27,22.40
2019,07,27,14,28,22.40
2019,07,27,14,29,22.40
2019,07,27,14,30,22.40
2019,07,27,14,31,22.40
2019,07,27,14,32,22.40
2019,07,27,14,33,22.30
2019,07,27,14,34,22.30
2019,07,27,14,35,22.40
2019,07,27,14,36,22.40
2019,07,27,14,37,22.40
2019,07,27,14,38,22.30
2019,07,27,14,39,22.30
2019,07,27,14,40,22.40
2019,07,27,14,41,22.30
2019,07,27,14,42,22.30
2019,07,27,14,43,22.30
2019,07,27,14,44,22.30
2019,07,27,14,45,22.30
2019,07,27,14,46,22.30
2019,07,27,14,47,22.40
2019,07,27,14,48,22.50
2019,07,27,14,49,22.50
2019,07,27,14,50,22.50
2019,07,27,14,51,22.50
2019,07,27,14,52,22.50
2019,07,27,14,53,22.40
2019,07,27,14,54,22.50
2019,07,27,14,55,22.50
2019,07,27,14,56,22.50
2019,07,27,14,57,22.50
2019,07,27,14,58,22.40
2019,07,27,14,59,22.40
2019,07,27,15,00,22.50
2019,07,27,15,01,22.50
2019,07,27,15,02,22.60
2019,07,27,15,03,22.70
2019,07,27,15,04,22.70
2019,07,27,15,05,22.70
2019,07,27,15,06,22.70
2019,07,27,15,07,22.70
2019,07,27,15,08,22.70
2019,07,27,15,09,22.60
2019,07,27,15,10,22.60
2019,07,27,15,11,22.60
2019,07,27,15,12,22.50
2019,07,27,15,13,22.50
2019,07,27,15,14,22.50
2019,07,27,15,15,22.50
2019,07,27,15,16,22.60
2019,07,27,15,17,22.60
2019,07,27,15,18,22.60
2019,07,27,15,19,22.60
2019,07,27,15,20,22.50
2019,07,27,15,21,22.40
2019,07,27,15,22,22.50
2019,07,27,15,23,22.50
2019,07,27,15,24,22.40
2019,07,27,15,25,22.40
2019,07,27,15,26,22.40
2019,07,27,15,27,22.40
2019,07,27,15,28,22.40
2019,07,27,15,29,22.40
2019,07,27,15,30,22.40
2019,07,27,15,31,22.30
2019,07,27,15,32,22.30
2019,07,27,15,33,22.30
2019,07,27,15,34,22.30
2019,07,27,15,35,22.30
2019,07,27,15,36,22.30
2019,07,27,15,37,22.30
2019,07,27,15,38,22.40
2019,07,27,15,39,22.50
2019,07,27,15,40,22.50
2019,07,27,15,41,22.60
2019,07,27,15,42,22.60
2019,07,27,15,43,22.60
2019,07,27,15,44,22.60
2019,07,27,15,45,22.50
2019,07,27,15,46,22.50
2019,07,27,15,47,22.50
2019,07,27,15,48,22.60
2019,07,27,15,49,22.50
2019,07,27,15,50,22.50
2019,07,27,15,51,22.60
2019,07,27,15,52,22.60
2019,07,27,15,53,22.60
2019,07,27,15,54,22.60
2019,07,27,15,55,22.60
2019,07,27,15,56,22.50
2019,07,27,15,57,22.50
2019,07,27,15,58,22.40
2019,07,27,15,59,22.30
2019,07,27,16,00,22.20
2019,07,27,16,01,22.20
2019,07,27,16,02,22.10
2019,07,27,16,03,22.10
2019,07,27,16,04,22.10
2019,07,27,16,05,22.00
2019,07,27,16,06,22.00
2019,07,27,16,07,22.00
2019,07,27,16,08,21.90
2019,07,27,16,09,21.90
2019,07,27,16,10,21.90
2019,07,27,16,11,22.00
2019,07,27,16,12,22.00
2019,07,27,16,13,22.00
2019,07,27,16,14,22.10
2019,07,27,16,15,22.20
2019,07,27,16,16,22.30
2019,07,27,16,17,22.40
2019,07,27,16,18,22.40
2019,07,27,16,19,22.50
2019,07,27,16,20,22.50
2019,07,27,16,21,22.40
2019,07,27,16,22,22.40
2019,07,27,16,23,22.40
2019,07,27,16,24,22.40
2019,07,27,16,25,22.40
2019,07,27,16,26,22.40
2019,07,27,16,27,22.40
2019,07,27,16,28,22.40
2019,07,27,16,29,22.40
2019,07,27,16,30,22.40
2019,07,27,16,31,22.40
2019,07,27,16,32,22.40
2019,07,27,16,33,22.40
2019,07,27,16,34,22.50
2019,07,27,16,35,22.50
2019,07,27,16,36,22.60
2019,07,27,16,37,22.60
2019,07,27,16,38,22.60
2019,07,27,16,39,22.60
2019,07,27,16,40,22.70
2019,07,27,16,41,22.70
2019,07,27,16,42,22.70
2019,07,27,16,43,22.60
2019,07,27,16,44,22.60
2019,07,27,16,45,22.60
2019,07,27,16,46,22.50
2019,07,27,16,47,22.50
2019,07,27,16,48,22.50
2019,07,27,16,49,22.50
2019,07,27,16,50,22.50
2019,07,27,16,51,22.50
2019,07,27,16,52,22.40
2019,07,27,16,53,22.40
2019,07,27,16,54,22.40
2019,07,27,16,55,22.40
2019,07,27,16,56,22.30
2019,07,27,16,57,22.30
2019,07,27,16,58,22.40
2019,07,27,16,59,22.40
2019,07,27,17,00,22.50
2019,07,27,17,01,22.50
2019,07,27,17,02,22.60
2019,07,27,17,03,22.60
2019,07,27,17,04,22.70
2019,07,27,17,05,22.80
2019,07,27,17,06,22.80
2019,07,27,17,07,22.80
2019,07,27,17,08,22.80
2019,07,27,17,09,22.80
2019,07,27,17,10,22.90
2019,07,27,17,11,23.00
2019,07,27,17,12,23.00
2019,07,27,17,13,23.10
2019,07,27,17,14,23.10
2019,07,27,17,15,23.10
2019,07,27,17,16,23.00
2019,07,27,17,17,23.10
2019,07,27,17,18,23.10
2019,07,27,17,19,23.10